Weather History for Chapel Hill, NC

Change the Weather History Date:

Wednesday, January 29, 2014

  Actual Average Record
Temperature  
Mean Temperature 20 °F -  
Max Temperature 26 °F 50 °F 77 °F (2002)
Min Temperature 12 °F 25 °F 5 °F (1963)
Degree Days  
Heating Degree Days 44    
Moisture  
Dew Point 6 °F    
Average Humidity 58    
Maximum Humidity 81    
Minimum Humidity 25    
Precipitation  
Precipitation 0.00 in - - ()
Sea Level Pressure  
Sea Level Pressure 30.28 in    
Wind  
Wind Speed 4 mph (NNW)    
Max Wind Speed 8 mph    
Max Gust Speed -    
Visibility 9 miles    
Events Snow    
Averages and records for this station are not official NWS values.
T = Trace of Precipitation, MM = Missing Value Source: NWS Daily Summary

Daily Weather History Graph

Daily Weather History Graph

Search for Another Location

Airport:

Trip Planner

Search our weather history database for the weather conditions in past years. The results will help you decide how hot, cold, wet, or windy it might be!

Date:

Astronomy

Jan. 29, 2014 Rise Set
Actual Time 7:18 AM EST 5:40 PM EST
Civil Twilight 6:51 AM EST 6:07 PM EST
Nautical Twilight 6:21 AM EST 6:38 PM EST
Astronomical Twilight 5:50 AM EST 7:08 PM EST
Moon 5:53 AM EST (1/29) 4:37 PM EST (1/29)
Length of Visible Light 11h 15m
Length of Day
10h 21m
Waning Crescent, 2% of the Moon is Illuminated
Jan 29
Waning Crescent
Jan 30
New
Feb 6
First Quarter
Feb 14
Full
Feb 22
Last Quarter

Hourly Weather History & Observations

Time (EST) Temp. Windchill Dew Point Humidity Pressure Visibility Wind Dir Wind Speed Gust Speed Precip Events Conditions
12:28 AM 18.0 °F 12.7 °F 12.9 °F 81% 30.19 in 2.5 mi Variable 3.5 mph - 0.00 in Snow Light Snow
12:56 AM 18.0 °F 8.7 °F 12.0 °F 78% 30.20 in 2.5 mi North 6.9 mph - 0.00 in Snow Light Snow
1:03 AM 18.0 °F 11.1 °F 12.0 °F 78% 30.18 in 4.0 mi North 4.6 mph - 0.00 in Snow Light Snow
1:56 AM 18.0 °F 11.1 °F 12.0 °F 78% 30.19 in 7.0 mi Variable 4.6 mph - 0.00 in Snow Light Snow
2:45 AM 18.0 °F 9.8 °F 12.0 °F 78% 30.19 in 10.0 mi Variable 5.8 mph - 0.00 in   Overcast
2:56 AM 18.0 °F 12.7 °F 12.9 °F 81% 30.21 in 10.0 mi Variable 3.5 mph - 0.00 in   Overcast
3:31 AM 18.0 °F 8.7 °F 10.9 °F 74% 30.18 in 10.0 mi Variable 6.9 mph - N/A   Overcast
3:56 AM 18.0 °F 8.7 °F 10.9 °F 74% 30.21 in 10.0 mi Variable 6.9 mph - N/A   Overcast
4:56 AM 18.0 °F 12.7 °F 10.9 °F 74% 30.21 in 10.0 mi Variable 3.5 mph - N/A   Scattered Clouds
5:56 AM 18.0 °F 8.7 °F 10.9 °F 74% 30.24 in 10.0 mi NW 6.9 mph - N/A   Clear
6:56 AM 17.1 °F 11.7 °F 10.9 °F 77% 30.26 in 10.0 mi NNW 3.5 mph - N/A   Clear
7:56 AM 17.1 °F 10.0 °F 10.9 °F 77% 30.27 in 10.0 mi NW 4.6 mph - N/A   Clear
8:56 AM 18.0 °F 12.7 °F 10.9 °F 74% 30.30 in 10.0 mi North 3.5 mph - N/A   Clear
9:56 AM 19.9 °F 11.1 °F 9.0 °F 62% 30.34 in 10.0 mi Variable 6.9 mph - N/A   Clear
10:56 AM 21.0 °F 11.4 °F 3.0 °F 46% 30.35 in 10.0 mi NW 8.1 mph - N/A   Clear
11:56 AM 24.1 °F 17.0 °F -0.0 °F 35% 30.34 in 10.0 mi NW 5.8 mph - N/A   Clear
12:56 PM 26.1 °F 18.4 °F -2.9 °F 28% 30.31 in 10.0 mi Variable 6.9 mph - N/A   Clear
1:56 PM 26.1 °F 17.6 °F -6.0 °F 25% 30.30 in 10.0 mi NNW 8.1 mph - N/A   Clear
2:56 PM 26.1 °F 20.5 °F -2.9 °F 28% 30.30 in 10.0 mi NNW 4.6 mph - N/A   Clear
3:56 PM 26.1 °F 18.4 °F -6.0 °F 25% 30.32 in 10.0 mi NW 6.9 mph - N/A   Clear
4:56 PM 26.1 °F - -4.0 °F 27% 30.32 in 10.0 mi Calm Calm - N/A   Clear
5:56 PM 24.1 °F - -0.0 °F 35% 30.33 in 10.0 mi Calm Calm - N/A   Clear
6:56 PM 23.0 °F - 1.0 °F 39% 30.35 in 10.0 mi Calm Calm - N/A   Clear
7:56 PM 21.9 °F - 3.9 °F 46% 30.35 in 10.0 mi Calm Calm - N/A   Clear
8:56 PM 19.9 °F - 3.9 °F 50% 30.35 in 10.0 mi Calm Calm - N/A   Clear
9:56 PM 18.0 °F - 3.9 °F 54% 30.36 in 10.0 mi Calm Calm - N/A   Clear
10:56 PM 15.1 °F - 3.9 °F 61% 30.38 in 10.0 mi Calm Calm - N/A   Clear
11:56 PM 12.9 °F - 3.9 °F 67% 30.38 in 10.0 mi Calm Calm - N/A   Clear